Location: St. Louis
(38.6270°N, 90.1994°W)
Time: 12:31:23
(UTC-06:00)

deb Explorer IX - Pass Details

Date: 08 December 2021
Orbit: 544 x 1082 km, 38.8° (Epoch: 16 January)

Event Time Altitude Azimuth Distance (km) Brightness Sun altitude
Rises 14:28:44 0° 270° (W) 2,755 ? 18.6°
Reaches altitude 10° 14:32:37 10° 234° (SW) 1,807 ? 18.1°
Maximum altitude 14:33:48 11° 217° (SW) 1,732 ? 17.9°
Drops below altitude 10° 14:34:58 10° 200° (SSW) 1,795 ? 17.8°
Sets 14:38:48 0° 163° (SSE) 2,700 ? 17.3°
